This demonstration page uses our WeatherBlox Daily Observations layout. Learn more.

Left ArrowRight Arrow

53.62937, 11.41316

Hourly Observations for February 1, 2016

Temp ( °F °C ) Dew Point ( °F °C ) Humidity (%) Winds ( mph kmh ) Pressure ( in mb ) Visibility ( mi km ) Precip ( " mm )
5:20 am 05:20 Mostly Cloudy with Mist and Fog 37 3 37 3 100 100 WSW 9 15 29.77 1008 3 5 N/A
5:50 am 05:50 Mostly Cloudy 37 3 37 3 100 100 WSW 7 11 29.80 1009 4 6 N/A
6:20 am 06:20 Mostly Clear 37 3 36 2 93 93 WSW 7 11 29.80 1009 4 6 N/A
6:50 am 06:50 Mostly Clear 37 3 36 2 93 93 WSW 10 17 29.83 1010 4 6 N/A
7:20 am 07:20 Mostly Clear 37 3 37 3 100 100 WSW 8 13 29.83 1010 4 6 N/A
7:50 am 07:50 Mostly Clear 37 3 37 3 100 100 SW 8 13 29.83 1010 4 6 N/A
8:20 am 08:20 Partly Cloudy 39 4 37 3 93 93 WSW 7 11 29.83 1010 4 7 N/A
8:50 am 08:50 Partly Cloudy 39 4 37 3 93 93 SW 8 13 29.85 1011 30 48 N/A
9:20 am 09:20 Mostly Cloudy 39 4 37 3 93 93 SSW 8 13 29.85 1011 6 9 N/A
9:50 am 09:50 Mostly Cloudy with Light Rain 41 5 39 4 93 93 S 8 13 29.83 1010 4 7 N/A
10:20 am 10:20 Cloudy with Light Rain 41 5 39 4 93 93 S 7 11 29.83 1010 3 5 N/A
10:50 am 10:50 Mostly Cloudy with Light Rain 41 5 39 4 93 93 S 9 15 29.83 1010 2 3 N/A
11:20 am 11:20 Mostly Cloudy with Drizzle 41 5 41 5 100 100 S 9 15 29.83 1010 1 2 N/A
11:50 am 11:50 Mostly Cloudy with Drizzle 43 6 41 5 93 93 S 9 15 29.83 1010 2 3 N/A
12:20 pm 12:20 Mostly Cloudy with Drizzle 43 6 41 5 93 93 S 10 17 29.77 1008 2 4 N/A
12:50 pm 12:50 Cloudy with Drizzle 43 6 43 6 100 100 S 14 22 29.77 1008 3 5 N/A
1:20 pm 13:20 Cloudy with Mist and Fog 45 7 43 6 93 93 SSW 16 26 29.74 1007 3 5 N/A
1:50 pm 13:50 Mostly Cloudy with Light Rain 46 8 46 8 100 100 SSW 17 28 29.74 1007 2 4 N/A
2:20 pm 14:20 Cloudy 48 9 48 9 100 100 SW 17 28 29.74 1007 30 48 N/A
2:50 pm 14:50 Cloudy with Mist and Fog 50 10 48 9 94 94 SW 21 33 29.74 1007 3 5 N/A
3:20 pm 15:20 Mostly Cloudy with Drizzle 52 11 50 10 94 94 WSW 22 35 29.71 1006 1 2 N/A
3:50 pm 15:50 Mostly Cloudy 52 11 48 9 88 88 WSW 26 43 29.74 1007 30 48 N/A
4:20 pm 16:20 Mostly Cloudy 50 10 46 8 88 88 WSW 22 35 29.74 1007 30 48 N/A
4:50 pm 16:50 Mostly Cloudy 50 10 46 8 88 88 WSW 25 41 29.74 1007 30 48 N/A
5:20 pm 17:20 Mostly Cloudy 50 10 46 8 88 88 WSW 25 41 29.74 1007 30 48 N/A
5:50 pm 17:50 Mostly Cloudy 50 10 45 7 82 82 WSW 23 37 29.74 1007 30 48 N/A

Powered by AerisWeather